Temp
32 34 35 34 33 34 32 33 34 35 36 40 43 50 59 67 68 71 73 74 74 74 73 72 70 68 67 66 66 64 63 62 64 64 60 61 63 60 60 60 59 62 62
28 30 31 30 30 29 30 31 32 33 35 39 40 43 48 62 68 70 72 73 73 74 73 72 70 68 66 66 66 65 62 63 63 59 56 50 58 60 64 58 60 59 60
24 27 27 28 27 27 28 30 30 31 34 35 39 43 49 58 65 67 69 71 72 72 72 71 69 68 67 65 65 65 64 61 60 63 54 49 47 54 58 57 58 58 57
24 27 26 26 26 26 28 29 30 31 34 33 36 38 41 50 62 66 67 69 72 71 71 70 69 68 67 66 65 66 63 63 59 61 61 57 57 49 50 54 56 58 59
22 25 25 26 27 27 27 28 28 29 31 31 33 37 39 47 52 66 65 68 70 71 71 69 68 67 67 66 65 63 63 64 61 61 55 56 59 56 51 49 51 55 57
22 25 27 27 26 27 26 26 26 27 28 29 31 34 36 40 47 58 64 66 68 69 69 69 69 68 67 65 65 64 64 63 62 58 58 56 54 54 53 50 51 52 55
19 22 23 24 24 24 25 25 25 24 26 27 29 30 36 38 44 45 64 64 66 67 67 68 67 67 66 66 66 64 63 62 61 59 59 59 59 59 58 57 54 52 54
16 19 21 22 22 23 24 24 24 23 25 25 26 29 33 37 41 45 46 65 66 67 68 68 68 67 67 66 66 64 63 63 61 59 61 59 60 60 60 58 57 52 52
15 17 20 21 22 22 23 23 23 23 24 24 25 28 31 34 37 42 47 58 67 68 68 68 67 66 66 66 65 64 63 63 62 61 59 61 59 60 61 60 62 57 49
15 16 19 20 21 22 23 24 23 23 23 24 25 27 28 32 37 41 44 43 64 67 67 67 66 66 66 65 64 64 64 63 62 62 60 60 59 60 59 59 62 59 56
14 14 15 18 20 22 22 22 22 23 23 23 25 26 27 29 35 38 41 42 53 65 66 67 66 66 65 65 64 63 64 63 62 63 62 60 60 59 59 59 59 58 57
14 12 12 15 18 19 21 21 22 22 23 24 24 25 27 28 30 35 38 41 45 57 64 67 66 66 65 64 63 62 63 62 61 62 62 61 63 58 58 58 58 57 58
14 12 11 12 15 19 20 21 22 22 23 23 24 25 25 26 27 30 36 40 42 46 62 64 66 65 65 64 64 64 63 63 63 63 62 62 61 59 59 59 58 57 60
15 13 11 9 12 17 20 21 22 22 22 23 24 24 24 25 27 29 33 38 41 44 48 61 65 65 65 64 64 64 63 63 63 63 62 62 62 61 59 59 59 58 57
21 19 16 12 10 13 17 22 22 23 22 22 23 23 25 26 27 28 31 36 39 42 45 50 61 65 64 64 63 63 63 62 62 62 63 63 61 56 60 62 59 59 58
21 22 22 21 19 15 17 21 22 22 22 22 22 24 25 26 26 28 30 33 37 39 42 44 49 60 64 49 55 61 62 63 62 61 62 63 54 55 55 56 56 59 58
19 21 20 20 21 18 20 19 20 23 22 22 22 23 24 25 26 28 30 31 33 37 38 40 41 42 43 46 48 51 63 62 62 62 62 62 63 56 60 55 54 54 55
18 19 17 19 21 22 22 21 24 22 22 22 22 23 24 25 26 27 29 30 32 33 34 36 38 39 41 44 45 46 59 62 62 62 62 62 62 60 60 60 58 59 59
13 13 14 21 21 21 22 23 23 22 23 23 23 23 24 24 25 26 28 29 30 32 32 32 33 35 38 42 43 47 52 56 61 63 63 62 62 56 54 60 58 58 59
22 21 20 22 21 21 22 21 22 22 22 24 25 26 24 24 24 26 27 29 30 30 32 31 32 35 34 40 42 42 44 45 50 57 62 53 61 54 53 59 58 56 58
22 22 21 20 21 21 21 19 20 21 23 26 27 27 27 25 25 26 27 28 28 29 29 30 30 31 33 35 39 40 39 40 42 45 47 48 45 47 51 55 60 58 60
22 22 20 20 21 22 20 19 18 22 23 25 26 26 27 28 26 25 26 26 27 27 27 28 28 30 31 36 37 38 39 40 39 39 41 42 43 45 46 50 56 54 54
22 22 19 19 20 21 20 17 19 21 21 22 23 25 26 28 28 25 24 24 26 25 26 26 26 27 30 32 36 37 38 38 37 39 40 41 42 43 46 46 46 47 56
18 20 19 18 17 20 24 19 20 20 19 18 21 24 24 24 26 28 27 24 23 24 25 26 25 26 28 29 32 33 33 35 35 36 36 38 38 39 39 40 41 44 48
13 14 12 13 15 18 18 19 21 19 18 19 21 21 24 22 23 26 25 23 26 27 25 26 25 25 25 28 32 33 32 33 34 33 32 31 31 31 32 33 34 35 37
8 9 10 9 9 10 13 16 18 18 16 18 22 21 20 20 24 24 24 31 31 31 31 32 30 29 31 33 33 33 34 34 34 29 26 25 26 26 27 27 28 29 30
MSLP
1022.38 1021.77 1021.28 1020.80 1019.94 1019.21 1018.24 1017.13 1015.79 1014.28 1013.47 1011.75 1010.50 1008.45 1007.03 1002.52 1005.69 1006.35 1007.36 1008.11 1008.92 1010.08 1010.84 1011.74 1013.04 1014.07 1015.03 1015.82 1016.43 1017.18 1017.99 1019.08 1019.73 1020.64 1021.46 1022.02 1022.31 1022.68 1022.97 1023.18 1023.49 1023.72 1024.05
1022.69 1022.04 1021.52 1020.90 1020.21 1019.50 1018.52 1017.45 1016.55 1015.63 1014.24 1013.27 1012.94 1009.96 1008.38 1004.60 1004.97 1006.09 1006.87 1007.65 1008.50 1009.50 1010.31 1011.44 1012.63 1014.02 1014.81 1015.60 1016.21 1016.81 1017.84 1018.84 1019.48 1020.45 1021.58 1022.49 1022.93 1022.94 1023.05 1023.41 1023.59 1023.90 1024.05
1023.14 1022.31 1021.55 1021.04 1020.45 1019.76 1018.74 1017.61 1016.81 1015.59 1015.09 1013.73 1012.07 1010.56 1008.55 1007.06 1005.54 1005.67 1006.83 1007.41 1008.21 1009.12 1009.88 1011.14 1012.21 1013.68 1014.50 1015.09 1015.83 1016.51 1017.17 1018.18 1019.26 1019.96 1020.53 1022.08 1022.42 1022.84 1023.26 1023.50 1023.76 1024.07 1024.24
1023.48 1022.51 1021.77 1021.17 1020.61 1019.98 1018.99 1017.89 1016.95 1015.75 1014.43 1014.16 1013.24 1011.24 1009.56 1006.89 1004.94 1004.82 1006.21 1007.25 1008.14 1008.73 1009.59 1010.65 1011.77 1013.14 1014.14 1014.86 1015.48 1016.17 1016.89 1017.61 1018.59 1019.59 1019.84 1020.02 1020.42 1021.91 1023.43 1023.58 1023.73 1023.94 1024.29
1023.79 1022.97 1022.24 1021.54 1020.75 1019.99 1019.04 1018.04 1017.12 1016.31 1014.71 1013.95 1012.72 1011.93 1010.85 1008.44 1005.69 1005.42 1005.69 1006.87 1007.87 1008.53 1009.22 1010.29 1011.39 1012.62 1013.61 1014.56 1015.12 1015.99 1016.68 1017.37 1018.06 1018.77 1019.46 1019.85 1020.30 1020.61 1021.95 1023.21 1023.63 1023.83 1023.99
1024.13 1023.45 1022.68 1021.71 1020.95 1020.16 1019.18 1018.10 1017.21 1016.65 1015.77 1014.59 1014.35 1012.62 1010.42 1009.88 1007.76 1007.08 1005.69 1006.63 1007.41 1008.26 1008.96 1010.21 1010.98 1012.18 1013.09 1013.96 1014.74 1015.50 1016.36 1017.06 1017.72 1018.29 1018.85 1019.33 1019.88 1020.28 1020.80 1022.07 1023.02 1023.57 1023.81
1024.52 1023.82 1022.94 1021.99 1021.09 1020.19 1019.33 1018.51 1017.71 1016.96 1016.18 1015.09 1013.42 1012.54 1011.66 1010.49 1009.14 1007.34 1005.06 1006.23 1006.35 1007.51 1008.31 1009.49 1010.52 1011.62 1012.59 1013.47 1014.22 1015.01 1015.89 1016.59 1017.20 1017.76 1018.49 1018.83 1019.21 1019.48 1020.05 1020.96 1022.28 1023.13 1023.63
1024.84 1024.17 1023.43 1022.62 1021.68 1020.69 1019.79 1018.85 1018.30 1017.52 1016.67 1016.02 1015.28 1013.93 1013.07 1010.77 1008.89 1007.38 1006.75 1005.46 1005.52 1006.43 1007.65 1008.60 1009.55 1010.67 1011.93 1012.90 1013.74 1014.55 1015.32 1016.14 1016.76 1017.38 1018.03 1018.57 1018.80 1018.98 1019.46 1020.21 1021.09 1022.55 1023.15
1024.97 1024.35 1023.70 1023.01 1022.12 1021.18 1020.31 1019.37 1018.65 1017.60 1017.43 1016.16 1015.16 1013.90 1013.47 1011.18 1010.28 1009.08 1007.39 1005.82 1004.65 1005.77 1006.81 1007.86 1009.05 1010.35 1011.46 1012.42 1013.20 1013.95 1014.74 1015.52 1016.22 1016.92 1017.62 1018.14 1018.49 1018.71 1018.95 1019.52 1020.15 1020.82 1022.12
1025.08 1024.55 1023.98 1023.37 1022.53 1021.70 1020.87 1019.74 1018.89 1018.23 1017.16 1016.71 1015.23 1014.20 1013.23 1011.52 1011.37 1009.35 1007.12 1007.06 1004.80 1004.73 1006.20 1007.20 1008.45 1009.94 1011.08 1011.88 1012.65 1013.45 1014.15 1014.83 1015.59 1016.37 1017.13 1017.77 1018.14 1018.43 1018.74 1019.18 1019.62 1020.17 1020.79
1025.22 1024.82 1024.22 1023.73 1023.04 1022.08 1021.17 1020.17 1019.00 1018.44 1017.54 1016.85 1015.95 1014.33 1013.38 1012.83 1011.43 1009.84 1008.84 1007.59 1006.38 1004.92 1005.71 1006.73 1007.94 1009.16 1010.24 1011.13 1011.92 1012.68 1013.44 1014.13 1014.85 1015.64 1016.47 1017.25 1017.72 1018.22 1018.57 1018.93 1019.32 1019.82 1020.25
1025.11 1024.87 1024.27 1023.88 1023.28 1022.43 1021.44 1020.60 1019.63 1018.67 1018.25 1017.10 1016.00 1014.94 1014.09 1013.05 1012.01 1010.08 1009.49 1008.58 1008.01 1005.51 1005.15 1006.18 1007.27 1008.38 1009.38 1010.24 1010.97 1011.76 1012.66 1013.43 1014.22 1014.93 1015.69 1016.53 1017.19 1017.81 1018.23 1018.67 1019.07 1019.44 1019.75
1024.70 1024.66 1024.28 1023.96 1023.44 1022.74 1021.78 1021.08 1020.29 1019.30 1018.48 1017.60 1016.04 1014.69 1014.08 1013.34 1012.30 1011.24 1010.52 1008.90 1007.59 1006.84 1005.02 1005.29 1006.51 1007.62 1008.63 1009.52 1010.24 1010.84 1011.83 1012.70 1013.40 1014.22 1014.91 1015.77 1016.48 1017.32 1017.77 1018.26 1018.75 1019.08 1019.35
1024.31 1024.33 1024.40 1023.90 1023.52 1022.91 1022.07 1021.37 1020.71 1020.05 1019.10 1018.06 1016.84 1015.68 1014.67 1013.79 1012.42 1010.87 1009.43 1008.82 1008.05 1007.51 1006.57 1005.18 1005.97 1006.94 1008.02 1008.80 1009.49 1010.13 1011.09 1012.00 1012.79 1013.63 1014.23 1015.03 1015.71 1016.41 1017.14 1017.72 1018.24 1018.67 1019.18
1023.88 1023.94 1024.02 1023.82 1023.50 1023.08 1022.31 1021.60 1021.11 1020.69 1019.88 1018.96 1017.46 1016.47 1015.56 1014.83 1013.58 1011.91 1011.15 1010.20 1009.05 1007.95 1007.48 1006.17 1005.79 1006.37 1007.44 1008.12 1008.71 1009.46 1010.20 1011.15 1012.06 1012.84 1013.53 1014.29 1014.95 1015.54 1016.19 1016.92 1017.54 1018.08 1018.67
1023.73 1023.62 1023.55 1023.47 1023.33 1022.99 1022.52 1021.83 1021.32 1020.96 1020.62 1019.78 1018.48 1017.35 1016.33 1015.39 1014.15 1013.13 1012.15 1010.50 1009.68 1009.30 1008.14 1007.84 1006.72 1006.64 1006.90 1007.76 1007.99 1008.68 1009.47 1010.37 1011.19 1012.00 1012.72 1013.48 1014.15 1014.82 1015.49 1016.09 1016.65 1017.11 1017.71
1023.72 1023.57 1023.49 1023.39 1023.17 1022.84 1022.40 1022.02 1021.40 1021.04 1020.67 1020.29 1019.19 1018.10 1017.21 1016.29 1015.14 1014.19 1012.91 1011.86 1010.53 1009.42 1009.42 1009.20 1008.94 1008.51 1008.89 1009.17 1008.69 1008.63 1008.92 1009.76 1010.44 1011.05 1011.84 1012.63 1013.29 1013.97 1014.72 1015.35 1015.81 1016.23 1016.62
1023.63 1023.63 1023.42 1023.23 1022.98 1022.65 1022.42 1022.05 1021.43 1021.16 1020.89 1020.56 1019.82 1018.91 1018.31 1017.42 1016.17 1014.89 1013.59 1012.27 1012.08 1010.39 1010.29 1010.87 1009.90 1010.16 1010.03 1009.85 1009.41 1008.46 1008.75 1009.30 1009.86 1010.25 1010.99 1011.63 1012.30 1013.10 1013.83 1014.63 1015.23 1015.64 1015.89
1023.27 1023.24 1023.21 1022.93 1022.76 1022.60 1022.49 1022.20 1021.59 1021.40 1021.10 1020.75 1020.09 1019.55 1018.89 1017.90 1016.74 1015.50 1014.51 1013.83 1013.08 1012.39 1011.74 1011.52 1011.90 1011.83 1011.74 1010.23 1009.67 1009.02 1009.02 1009.27 1009.19 1009.67 1010.24 1010.81 1011.46 1012.00 1012.74 1013.50 1014.18 1014.70 1015.01
1022.77 1022.85 1022.85 1022.74 1022.61 1022.56 1022.53 1022.30 1021.90 1021.67 1021.25 1020.80 1020.09 1019.61 1019.17 1018.38 1017.52 1016.68 1015.70 1015.16 1014.07 1014.38 1013.42 1012.76 1013.07 1012.98 1012.74 1011.60 1010.46 1010.78 1010.09 1009.76 1009.73 1009.41 1009.58 1010.14 1010.68 1011.16 1011.75 1012.47 1013.18 1013.72 1014.12
1022.39 1022.52 1022.66 1022.84 1022.62 1022.47 1022.53 1022.49 1022.14 1021.89 1021.52 1020.95 1020.22 1019.77 1019.28 1018.99 1018.50 1017.55 1016.52 1015.67 1015.40 1015.52 1013.99 1013.45 1014.02 1014.37 1013.52 1012.60 1012.26 1011.97 1011.65 1010.62 1010.42 1010.30 1010.61 1010.89 1010.88 1010.69 1010.90 1011.46 1011.99 1012.40 1013.04
1022.18 1022.30 1022.62 1022.69 1022.63 1022.55 1022.55 1022.60 1022.45 1022.15 1021.80 1021.13 1020.47 1019.85 1019.65 1019.48 1019.06 1018.28 1017.51 1016.93 1016.52 1015.65 1015.37 1013.71 1014.40 1015.09 1014.19 1013.08 1012.67 1012.59 1011.93 1011.41 1011.46 1011.14 1011.29 1011.37 1011.68 1011.10 1010.93 1011.19 1011.03 1011.61 1012.30
1022.32 1022.32 1022.59 1022.70 1022.61 1022.58 1022.55 1022.66 1022.54 1022.31 1022.04 1021.47 1020.85 1020.26 1020.20 1019.71 1019.10 1018.78 1018.48 1017.79 1017.28 1016.59 1016.12 1014.91 1015.43 1015.84 1015.20 1014.21 1013.90 1013.45 1012.97 1012.90 1012.65 1012.15 1011.37 1011.38 1011.72 1011.73 1011.24 1011.25 1011.16 1011.49 1011.65
1022.49 1022.55 1022.75 1022.92 1022.86 1022.56 1022.45 1022.41 1022.27 1022.22 1022.10 1021.68 1021.12 1020.66 1020.40 1019.93 1019.61 1019.36 1018.98 1018.56 1018.44 1017.51 1016.61 1016.80 1016.72 1016.65 1016.29 1015.28 1014.85 1014.48 1013.99 1013.59 1013.37 1012.59 1012.32 1012.45 1011.76 1012.63 1011.89 1011.92 1012.07 1011.86 1011.82
1022.96 1022.90 1023.25 1023.29 1023.13 1022.84 1022.63 1022.38 1022.31 1022.26 1022.23 1021.91 1021.41 1021.16 1020.81 1020.55 1020.04 1019.56 1019.34 1019.31 1019.01 1018.30 1018.06 1018.21 1017.80 1017.57 1017.04 1016.38 1016.32 1015.53 1014.94 1014.70 1014.48 1013.91 1013.43 1013.30 1012.89 1013.82 1013.29 1013.02 1013.11 1013.03 1012.84
1023.51 1023.52 1023.58 1023.54 1023.33 1023.22 1023.03 1022.76 1022.61 1022.56 1022.49 1022.22 1021.71 1021.39 1021.00 1020.67 1020.36 1020.03 1019.61 1019.14 1019.09 1019.06 1018.85 1018.67 1018.15 1018.10 1017.86 1017.25 1017.19 1016.49 1016.21 1015.37 1015.07 1014.61 1014.84 1014.52 1014.72 1014.85 1014.63 1014.56 1014.35 1014.17 1013.77
Wind_Speed
16 14 15 15 16 15 16 17 19 20 14 12 11 5 9 15 14 13 19 19 17 17 15 11 12 10 10 10 10 7 9 9 8 7 4 4 5 5 4 5 5 5 6
15 15 15 14 15 16 17 17 17 17 15 9 8 5 7 6 13 12 16 18 18 19 15 14 14 12 10 11 12 11 7 9 9 9 6 3 2 2 5 4 5 5 4
16 16 15 14 14 16 18 17 17 18 14 16 8 6 11 6 12 14 14 16 18 17 17 17 15 13 11 11 11 11 11 11 6 13 6 4 5 5 1 4 4 6 4
14 15 15 15 15 15 15 16 17 18 15 15 11 10 10 4 8 12 13 15 18 17 16 18 16 15 11 12 10 10 9 12 12 10 2 2 7 5 5 2 4 5 6
13 16 15 15 15 14 15 15 16 16 17 16 15 9 8 8 8 10 15 16 16 18 18 18 17 15 11 12 13 12 12 10 9 9 3 2 8 5 5 6 4 3 4
13 14 15 15 14 14 15 15 17 17 16 16 12 12 13 14 7 12 16 14 14 14 17 18 17 14 13 14 12 13 14 13 9 4 5 4 4 4 5 5 5 5 3
10 13 15 16 16 17 17 15 18 18 16 16 17 15 12 11 12 12 13 16 14 14 16 18 17 13 13 15 15 14 13 12 10 7 6 4 4 4 3 8 6 4 2
7 9 13 13 15 16 16 17 17 17 16 14 13 13 14 8 11 10 9 15 15 16 20 19 19 18 16 16 15 12 11 12 9 9 9 4 4 4 4 5 10 6 2
8 9 10 11 13 14 15 16 16 17 15 16 12 13 14 10 12 15 7 9 18 16 20 20 18 17 16 17 16 12 13 13 12 11 8 7 4 4 4 5 9 8 5
8 8 8 10 11 13 14 15 15 15 16 15 13 11 14 13 12 11 12 16 13 19 20 20 19 18 17 17 16 13 13 13 11 9 9 7 4 5 4 4 7 4 4
8 6 6 6 9 11 13 14 16 16 17 15 14 15 15 14 12 9 10 12 18 14 20 20 20 20 19 18 17 15 15 15 14 13 12 9 7 6 4 4 3 4 3
8 5 5 6 7 10 13 14 15 16 15 15 14 13 14 14 12 11 10 7 12 7 17 21 20 20 19 19 18 17 16 17 16 15 15 13 9 8 7 5 6 5 4
6 5 5 5 6 9 11 13 14 16 16 15 15 15 15 15 14 12 10 9 11 12 16 17 19 19 19 19 18 17 17 17 16 16 15 14 13 10 8 8 7 5 4
6 4 5 5 5 7 10 12 12 14 16 15 15 15 16 16 16 15 13 12 9 10 12 15 18 18 18 18 18 17 16 16 15 15 15 14 15 14 11 10 10 7 5
9 6 6 5 5 6 7 10 10 11 14 15 15 16 15 14 14 15 14 10 7 8 11 6 11 17 16 13 17 17 16 17 15 14 15 14 16 17 16 11 10 10 8
9 9 8 8 8 6 6 10 9 9 11 13 14 15 15 15 15 14 13 11 9 7 8 12 3 9 11 4 16 19 16 16 16 15 14 14 15 16 18 17 16 15 13
6 7 8 7 8 6 5 9 7 7 9 12 13 14 15 15 14 14 13 13 12 10 10 11 13 15 12 16 6 5 14 15 16 16 15 13 12 15 15 17 19 18 18
4 5 4 7 6 6 6 7 7 6 8 11 12 13 14 13 13 13 13 14 11 12 9 9 12 10 12 18 14 7 10 13 15 15 16 16 16 16 16 15 15 15 15
4 5 3 5 6 6 6 8 7 7 10 11 12 13 13 14 13 14 14 11 11 11 10 10 11 9 11 24 22 6 2 3 14 14 14 15 16 17 20 17 17 16 14
3 4 4 4 6 6 6 7 6 8 10 12 10 10 11 12 13 13 12 9 9 8 7 11 11 15 10 25 26 14 4 6 5 3 13 15 16 18 23 18 16 16 15
4 3 4 5 5 4 5 6 6 7 9 11 9 9 10 11 11 11 10 11 9 8 10 11 10 11 13 15 23 21 7 5 3 4 5 7 10 3 19 25 16 16 14
3 3 3 4 5 3 3 6 6 6 7 10 9 9 9 7 7 10 9 10 10 10 10 11 10 9 11 23 22 22 20 17 4 3 3 4 12 5 2 10 18 16 15
3 3 3 4 4 4 1 4 6 5 6 8 8 8 7 7 7 8 9 8 9 8 9 9 9 9 9 10 22 22 20 16 6 4 7 10 9 9 3 4 3 3 10
4 3 4 5 5 4 3 3 5 5 6 6 7 6 6 7 7 5 6 7 7 7 8 8 7 7 8 10 9 9 9 13 9 9 7 8 10 11 9 6 7 4 2
2 2 3 4 5 4 4 3 4 5 6 6 5 5 5 6 5 6 3 4 4 8 6 6 6 7 8 10 16 12 8 6 7 5 6 7 8 6 7 5 6 5 5
2 2 4 4 4 3 3 3 3 4 4 5 5 5 3 4 6 5 6 11 10 12 14 14 11 6 14 18 17 15 17 15 13 7 7 7 7 7 7 6 6 6 7
Wind_Direction
337 341 343 341 334 336 339 336 333 335 335 334 346 317 305 153 165 160 163 169 161 168 161 150 148 150 151 153 149 139 145 133 139 136 101 74 111 124 116 111 117 119 131
337 337 341 344 342 338 339 336 335 335 331 331 324 293 305 279 163 165 164 170 166 167 158 157 151 157 155 156 158 151 144 144 156 146 112 113 60 160 138 134 138 153 131
335 333 344 344 340 343 340 337 335 331 330 338 319 339 277 289 198 169 173 169 168 165 160 157 150 162 164 162 162 157 153 151 138 150 142 142 188 144 145 152 154 149 142
335 337 342 341 340 340 336 338 337 334 336 344 344 348 304 310 284 157 176 163 170 164 164 159 157 164 163 166 162 156 154 155 160 174 183 132 141 153 162 190 171 156 168
338 336 342 338 336 341 342 341 339 341 339 340 346 354 303 303 328 172 177 164 170 170 161 164 160 165 164 169 162 154 161 164 170 178 147 117 158 149 134 155 180 152 175
335 335 338 339 337 341 345 348 344 344 340 337 330 346 346 324 306 288 170 172 172 171 163 168 162 168 167 166 165 160 163 171 179 152 150 154 165 160 143 131 159 157 187
327 335 340 343 339 344 346 349 347 344 339 341 338 345 341 329 302 310 176 183 167 173 165 165 166 169 170 169 167 167 166 171 175 160 161 159 178 157 139 145 156 149 154
318 333 339 340 339 342 344 346 348 343 341 341 339 338 324 342 318 322 333 181 171 170 168 167 170 172 171 170 170 169 166 169 168 165 170 171 188 168 160 150 156 149 137
324 329 337 340 340 342 342 344 345 340 344 336 337 345 325 356 326 304 314 281 170 169 170 167 169 173 172 173 170 170 172 166 169 176 166 177 184 166 168 138 164 159 146
325 326 337 339 339 340 340 343 346 346 338 338 342 342 330 348 318 321 343 345 209 165 170 169 169 172 176 174 171 170 175 169 169 170 168 176 174 170 165 152 168 148 140
312 315 324 332 335 337 346 345 347 349 342 341 342 349 345 337 330 346 335 355 293 191 173 174 173 175 176 176 174 172 173 173 169 172 177 175 168 170 169 162 153 163 143
297 304 315 326 338 340 348 350 347 346 342 336 343 354 346 340 339 346 341 2 316 275 175 178 176 178 180 177 175 172 175 175 176 177 179 182 177 168 167 167 176 174 175
310 323 337 331 335 343 345 350 352 345 342 338 345 354 353 344 341 342 328 332 349 338 187 175 179 179 179 179 180 175 177 181 181 182 180 181 180 178 175 177 178 172 169
314 334 338 328 326 334 343 349 350 349 342 338 349 355 354 343 339 339 347 345 12 344 326 181 181 179 180 181 179 177 176 183 184 183 181 182 184 185 177 177 179 173 173
342 348 344 337 328 332 335 348 347 352 347 339 350 353 348 343 342 349 344 338 6 6 351 351 205 179 182 183 181 179 178 182 185 184 184 186 187 185 187 186 182 176 180
333 341 347 352 344 335 337 344 341 346 357 343 349 350 349 346 350 346 341 351 21 28 19 7 19 216 182 72 186 181 182 183 186 187 187 188 184 185 184 185 182 181 182
320 337 346 345 337 338 350 337 330 338 5 350 350 356 349 347 351 346 354 3 358 23 36 35 31 62 44 33 52 179 186 186 189 189 189 190 192 186 191 194 188 190 189
305 318 317 316 325 331 356 331 334 353 358 357 357 357 349 345 350 353 1 8 354 29 40 26 52 36 41 27 15 106 195 191 195 193 192 193 193 192 189 192 197 202 202
250 247 247 307 327 342 352 333 345 359 357 356 360 2 348 345 352 2 3 6 11 19 39 40 27 39 25 36 19 16 161 253 199 195 194 191 196 187 188 194 198 202 209
287 310 307 315 328 345 352 333 342 2 355 348 354 356 357 351 356 353 1 7 17 8 36 56 32 26 23 34 33 21 30 45 358 280 203 197 200 188 187 196 199 205 207
244 286 320 309 307 350 354 332 342 2 344 337 344 358 4 3 349 350 7 10 19 14 30 48 42 22 25 30 37 29 26 28 5 32 2 28 23 69 193 195 202 204 198
257 245 263 292 302 316 351 326 341 347 337 331 344 356 359 1 2 357 6 12 14 23 16 44 42 14 18 24 24 27 27 13 16 47 28 34 345 351 74 205 205 190 189
233 222 227 278 300 295 262 318 313 342 338 330 340 349 349 358 2 21 7 10 13 21 22 32 34 11 7 18 15 16 21 10 9 2 40 40 22 356 25 18 275 234 208
209 222 226 259 276 287 280 286 323 346 341 331 330 343 356 3 357 29 30 28 6 13 30 28 31 18 10 11 4 8 1 9 359 8 29 37 54 27 47 33 15 13 321
205 192 219 239 264 301 316 329 337 352 334 325 320 355 3 346 354 360 42 46 7 32 21 33 31 18 12 13 2 12 8 15 20 36 39 39 42 27 16 38 31 20 10
199 207 222 228 256 277 280 290 319 330 322 319 342 332 358 356 1 0 358 18 36 36 33 32 41 32 21 15 8 22 25 37 44 49 41 47 47 39 33 22 18 21 24